[[{"header":{"parameterUnit":"m.s-1","parameterCategory":1,"la1":30.2992,"la2":30.254,"lo1":-89.0895,"lo2":-89.0443,"dy":0.0025,"dx":0.0025,"nx":19,"ny":19,"refTime":"2026-05-22T09:00:00:Z","depth":0,"parameterNumber":2,"parameterNumberName":"U-component_of_WINDS"},"data":[0,0,0,-0.7659,-0.7659,-0.7667,-0.7667,-0.7681,-0.7681,0,0,0,0,0,0,0,0,0,0,0,-0.7658,-0.7658,-0.7659,-0.7659,-0.7667,-0.7667,-0.7681,-0.7681,0,0,0,0,0,0,0,0,0,0,0,-0.7658,-0.7658,-0.7658,-0.7659,-0.7667,-0.7667,-0.7681,-0.7674,0,0,0,0,0,0,0,0,0,0,-0.7666,-0.7666,-0.7658,-0.7658,-0.7659,-0.7667,-0.7667,-0.7673,-0.7674,-0.7678,0,-0.7682,0,-0.7681,-0.7682,-0.7682,0,0,0,-0.7659,-0.7665,-0.7666,-0.7658,-0.7659,-0.7667,-0.7663,-0.7674,-0.7675,-0.7679,-0.7682,-0.7682,-0.7682,-0.7682,-0.7682,-0.7707,-0.7707,0,0,-0.7658,-0.766,-0.7665,-0.7666,-0.7664,-0.7663,-0.7664,-0.7674,-0.7677,-0.7682,-0.7682,-0.7682,-0.7682,-0.7682,-0.7707,-0.7707,0,0,0,-0.7657,-0.766,-0.7661,-0.7666,-0.7667,-0.7663,-0.7664,-0.7677,-0.7677,-0.7683,-0.7682,-0.7682,-0.7682,-0.7707,-0.7707,-0.7717,0,0,0,-0.7657,-0.766,-0.766,-0.7662,-0.7667,-0.7672,-0.7666,-0.7676,-0.7677,-0.7682,-0.7682,-0.7682,-0.7707,-0.7707,-0.7716,-0.7722,0,0,0,-0.7657,-0.766,-0.7661,-0.7662,-0.7665,-0.7672,-0.7672,-0.7676,-0.7677,-0.7682,-0.7682,-0.7706,-0.7707,-0.7716,-0.7721,-0.773,0,0,0,-0.7658,-0.767,-0.7661,-0.7674,-0.7665,-0.7677,-0.7672,-0.7681,-0.7686,-0.7682,-0.7707,-0.7707,-0.7715,-0.772,-0.7729,-0.7738,-0.7742,0,0,-0.7674,-0.7672,-0.7679,-0.7672,-0.7686,-0.7676,-0.7691,-0.7695,-0.7693,-0.7703,-0.7703,-0.7716,-0.7721,-0.7729,-0.776,-0.7763,0,0,0,-0.7685,-0.7691,-0.7694,-0.7699,-0.7701,-0.7704,-0.7704,-0.7705,-0.7713,-0.7698,-0.7721,-0.7724,-0.7729,-0.7733,-0.7736,-0.774,-0.7709,-0.7709,-0.7709,-0.7713,-0.771,-0.7722,-0.772,-0.7725,-0.7725,-0.7729,-0.7731,-0.7727,-0.7732,-0.7735,-0.7754,-0.7759,-0.7761,-0.7766,-0.7739,-0.7739,-0.7739,-0.7739,-0.7737,-0.7745,-0.7739,-0.7749,-0.7746,-0.7754,-0.7755,-0.7751,-0.776,-0.7751,-0.7756,-0.7748,-0.7764,-0.7769,-0.774,-0.774,-0.774,-0.774,-0.7739,-0.7756,-0.7759,-0.776,-0.7766,-0.7772,-0.777,-0.7778,-0.7774,-0.7772,-0.7776,-0.778,-0.7779,-0.778,-0.7777,-0.7778,-0.7778,-0.7778,-0.7778,-0.7778,-0.7775,-0.7776,-0.7782,-0.7785,-0.7788,-0.7791,-0.7791,-0.7794,-0.7797,-0.7794,-0.7794,-0.779,-0.7766,-0.776,-0.7779,-0.7779,-0.7778,-0.7778,-0.7778,-0.7804,-0.7797,-0.7807,-0.781,-0.7813,-0.7819,-0.7815,-0.7821,-0.7823,-0.7827,-0.7822,-0.7804,-0.7802,-0.78,-0.7795,-0.7822,-0.7822,-0.7822,-0.7822,-0.782,-0.7818,-0.7828,-0.7833,-0.7837,-0.7834,-0.7847,-0.7847,-0.7846,-0.7847,-0.7842,-0.7836,-0.7834,-0.7833,-0.783,-0.7826,-0.786,-0.786,-0.786,-0.7838,-0.7836,-0.7848,-0.7846,-0.7848,-0.785,-0.7862,-0.7869,-0.7866,-0.7861,-0.7848,-0.7847,-0.7836,-0.7832,-0.7829,-0.7825,-0.7817,0,0]},{"header":{"parameterUnit":"m.s-1","parameterCategory":1,"la1":30.2992,"la2":30.254,"lo1":-89.0895,"lo2":-89.0443,"dy":0.0025,"dx":0.0025,"nx":19,"ny":19,"refTime":"2026-05-22T09:00:00:Z","depth":0,"parameterNumber":3,"parameterNumberName":"V-component_of_WINDS"},"data":[0,0,0,1.0028,1.0025,0.9821,0.982,0.9582,0.958,0,0,0,0,0,0,0,0,0,0,0,1.0105,1.0104,1.0029,1.0024,0.9821,0.982,0.9582,0.958,0,0,0,0,0,0,0,0,0,0,0,1.0106,1.0105,1.0104,1.0024,0.9821,0.982,0.9583,0.9728,0,0,0,0,0,0,0,0,0,0,0.9921,1.0009,1.0105,1.0103,1.0022,0.9821,0.9819,0.9734,0.9719,0.9685,0,0.9662,0,0.9618,0.9566,0.9565,0,0,0,1.0011,1.0022,0.9953,1.0103,1.0021,0.9822,0.9909,0.9725,0.9708,0.9665,0.9658,0.9649,0.9614,0.9564,0.9563,0.9423,0.9423,0,0,1.0022,1.0077,0.9965,0.9942,0.9979,0.9915,0.9903,0.9714,0.971,0.9658,0.9643,0.961,0.9563,0.9561,0.9423,0.9423,0,0,0,1.0063,1.0085,1.002,0.9953,0.9915,0.991,0.9895,0.9718,0.9692,0.964,0.9607,0.9562,0.9559,0.9423,0.9423,0.9476,0,0,0,1.007,1.0109,1.0025,1.0057,0.9919,0.9814,0.9904,0.9706,0.9682,0.9608,0.9562,0.9557,0.9423,0.9423,0.9475,0.9492,0,0,0,1.0113,1.0114,1.0091,1.006,0.9975,0.9816,0.9779,0.9699,0.9663,0.9565,0.9557,0.9423,0.9423,0.9474,0.9489,0.9472,0,0,0,1.0174,1.0139,1.0093,1.004,0.9977,0.9852,0.978,0.9683,0.9605,0.9561,0.9423,0.9423,0.9473,0.9488,0.9471,0.9467,0.9471,0,0,1.016,1.0139,1.0104,1.0057,0.9955,0.9879,0.9783,0.9658,0.9596,0.9483,0.9479,0.9475,0.9489,0.9472,0.9474,0.9477,0,0,0,1.0118,1.0094,1.0054,0.9985,0.9892,0.9812,0.9697,0.9651,0.9553,0.9551,0.9462,0.9469,0.9456,0.9452,0.9455,0.9441,0.9423,0.9423,0.9423,1.0175,1.0102,1.0039,0.9942,0.9876,0.9759,0.9697,0.9615,0.9557,0.9538,0.9504,0.9514,0.9512,0.9513,0.95,0.9496,0.9496,0.9496,0.9496,1.0148,1.0102,1.003,0.9944,0.9867,0.9792,0.9678,0.964,0.9558,0.9533,0.9518,0.9498,0.952,0.9504,0.95,0.9499,0.9499,0.9498,0.9498,1.0177,1.0142,1.009,0.9984,0.9909,0.9811,0.9737,0.9668,0.9601,0.9587,0.9543,0.9542,0.9533,0.9571,0.9571,0.9571,0.9571,0.9571,0.9571,1.0228,1.0167,1.0115,1.0015,0.9963,0.9884,0.9768,0.9713,0.9634,0.9589,0.9588,0.9534,0.9536,0.9539,0.9572,0.9571,0.9571,0.9571,0.9571,1.0228,1.0218,1.0137,1.0085,0.9963,0.9894,0.9808,0.9703,0.9647,0.9613,0.9561,0.9575,0.9547,0.9544,0.9545,0.9578,0.9578,0.9578,0.9578,1.0253,1.0233,1.0137,1.0058,0.9973,0.9888,0.9798,0.9707,0.9611,0.9572,0.9557,0.9553,0.9553,0.9525,0.9522,0.9522,0.9548,0.9548,0.9548,1.0248,1.0218,1.0156,1.0066,0.9965,0.988,0.9793,0.9704,0.9592,0.9546,0.954,0.9541,0.9533,0.9535,0.9488,0.9485,0.9484,0,0]}]]